www.pogodaiklimat.ru

Погода и климат >> Архив погоды >> Аргентина >> Пресиденсиа-Роке-Саэнс-Пенья


ПОГОДА в Пресиденсиа-Роке-Саэнс-Пеньи

  • Прогноз погоды в Пресиденсиа-Роке-Саэнс-Пеньи
  • Монитор погоды в Пресиденсиа-Роке-Саэнс-Пеньи

АРХИВ ПОГОДЫ в Пресиденсиа-Роке-Саэнс-Пеньи

Время (UTC), дата Ветер
(напр.,м/с)
 
Видим.   Явления Облачность Т
(С)
Тd
(С)
f
(%)
Тe
(С)
Тes
(С)
Комфортность P
(гПа)
Po
(гПа)
Тmin
(С)
Tmax
(С)
R
(мм)
R24
(мм)
S
(см)
21 11.07 СВ 4 20 км 4/0
[Ac und]
+27.6 +16.1 50 +31 +31 душно 1006.9 996.2
00 12.07 В 2 20 км 8/0
[Ac trans]
+22.8 +17.2 71 +28 +28 душно 1008.5 997.8 +18.0 +30.9
03 12.07 В 1 20 км 6/0
[Ac trans]
+20.4 +17.3 82 +25 +25 комфорт 1010.5 999.8
06 12.07 Ю 1 20 км 8/8 750 м
[Sc]
+18.3 +17.2 93 +20 +20 1010.2 999.7
09 12.07 В 3 20 км 10/0
[Ac As]
+19.6 +16.7 83 +22 +22 комфорт 1009.5 998.9
12 12.07 С 3 20 км 6/0
[Ac trans]
+21.2 +16.5 75 +25 +25 комфорт 1011.2 1000.5 +18.0 +22.8
15 12.07 СЗ 3 20 км 9/0
[Ac trans Cs]
+26.8 +17.0 55 +31 +36 душно 1012.2 1001.6
18 12.07 Ю 2 20 км 8/1 750 м
[Sc Ac trans Cs]
+27.6 +18.1 56 +32 +36 очень
душно
1010.4 999.8
21 12.07 ЮЗ 5 5000 м дым 9/3 900 м
[Sc Ac trans Cs]
+23.8 +18.3 71 +28 +28 душно 1011.7 1000.9
00 13.07 Ю 4 20 км 9/0
[Ac trans Cs]
+19.9 +17.0 83 +23 +23 комфорт 1013.5 1002.8 +19.9 +28.3
03 13.07 Ю 5 20 км 10/0
[Ac As]
+18.9 +15.9 83 +20 +20 1014.7 1004.0
06 13.07 Ю 4 20 км 10/10 600 м
[Sc]
+17.2 +15.7 91 +17 +17 1014.4 1003.7
09 13.07 Ю 3 5000 м дымка 10/10 450 м
[Sc]
+16.4 +15.6 95 +16 +16 1013.8 1003.0
12 13.07 Ю 3 500 м туман 10/10 240 м
[St]
+16.1 +15.9 99 +16 +16 1015.1 1004.2 +15.9 +19.9
15 13.07 Ю 2 1200 м в посл. час туман туман 10/10 240 м
[St]
+17.3 +16.3 94 +18 +18 1015.4 1004.5
18 13.07 Ю 2 2000 м дымка {туман} 10/10 240 м
[St]
+18.0 +16.3 90 +19 +19 1013.5 1002.6
21 13.07 Ю 2 4000 м дымка 10/10 210 м
[St]
+17.6 +16.6 94 +18 +18 1012.9 1002.0
00 14.07 З 1 1500 м слаб. морось туман 10/10 150 м
[St]
+16.9 +16.7 99 +18 +18 1015.0 1004.1 +16.1 +18.4 0.0
03 14.07 Ю 4 3000 м в посл. час морось туман 10/10 150 м
[St]
+17.0 +16.8 99 +17 +17 1016.3 1005.4
06 14.07 Ю 3 5000 м в посл. час морось туман 10/10 150 м
[St]
+16.6 +16.4 99 +16 +16 1016.3 1005.4 0.0
09 14.07 Ю 2 20 км 10/10 150 м
[St]
+16.1 +15.8 98 +16 +16 1015.2 1004.2
12 14.07 Ю 3 2000 м дымка 10/10 150 м
[St]
+15.9 +15.4 97 +16 +16 1017.9 1006.9 +15.7 +17.1 0.0
15 14.07 Ю 3 3000 м дымка 10/10 210 м
[St]
+16.6 +15.2 91 +16 +16 1017.7 1006.8
18 14.07 Ю 3 6000 м дымка 10/10 210 м
[St]
+16.5 +14.6 89 +16 +16 1015.6 1004.6
21 14.07 штиль 0 20 км 6/4 240 м
[St Ac As Cs]
+17.4 +15.5 89 +17 +17 1016.1 1005.2
00 15.07 Ю 2 5000 м дым 10/10 240 м
[St]
+16.9 +15.2 90 +17 +17 1017.0 1006.0 +15.7 +18.0
03 15.07 Ю 1 20 км 10/10 240 м
[St]
+16.4 +15.0 91 +17 +17 1018.1 1007.2
06 15.07 Ю 2 20 км 10/0
[Ac As]
+16.0 +14.4 90 +16 +16 1017.8 1006.8
09 15.07 Ю 1 20 км 9/0
[Ac As Cs]
+13.3 +12.6 96 +13 +13 1017.8 1006.8
12 15.07 ЮЗ 1 6000 м дымка 4/0
[Ac trans]
+11.9 +10.2 89 +12 +13 1020.5 1009.4 +11.5 +16.9
15 15.07 Ю 2 20 км ясно +18.6 +11.6 64 +20 +29 1022.0 1011.0
18 15.07 Ю 3 20 км ясно +22.7 +7.0 36 +23 +29 комфорт 1020.9 1010.0
21 15.07 Ю 2 20 км 1/0
[Cs]
+21.2 +9.4 47 +23 +23 комфорт 1021.3 1010.4
00 16.07 ЮЗ 2 6000 м дым ясно +15.3 +9.1 66 +15 +15 1023.5 1012.4 +11.9 +23.2
03 16.07 ЮЗ 1 20 км ясно +9.5 +8.5 93 +10 +10 1024.4 1013.3
06 16.07 штиль 0 20 км ясно +7.0 +6.6 97 +6 +6 1024.1 1013.0
09 16.07 В 1 5000 м дымка ясно +7.3 +6.2 93 +6 +6 1023.1 1012.0
12 16.07 В 1 5000 м дымка 8/0
[Cs]
+7.9 +7.3 96 +8 +9 1024.6 1013.4 +5.3 +15.3
15 16.07 В 4 20 км 9/0
[Cs]
+18.3 +10.6 61 +19 +24 1025.1 1014.0
18 16.07 В 3 20 км 5/0
[Cs]
+21.5 +11.1 52 +23 +29 комфорт 1022.0 1010.9
21 16.07 В 3 20 км 3/0
[Cs]
+20.4 +11.3 56 +23 +23 комфорт 1021.2 1010.1
00 17.07 В 1 20 км ясно +13.0 +10.9 87 +13 +13 1022.8 1011.6 +7.9 +22.1
03 17.07 В 1 20 км ясно +8.7 +8.3 97 +9 +9 1023.8 1012.6
06 17.07 В 1 20 км ясно +6.4 +6.2 99 +5 +5 1023.4 1012.2
09 17.07 В 2 20 км 9/0
[Ac trans]
+9.6 +8.4 92 +8 +8 1022.5 1011.3
12 17.07 В 3 8000 м дымка 1/0
[Ac trans]
+9.3 +7.2 87 +7 +8 1023.5 1012.4 +5.6 +13.0
15 17.07 В 4 20 км ясно +18.6 +8.5 52 +19 +25 1023.9 1012.8
18 17.07 В 4 20 км ясно +21.5 +7.3 40 +22 +28 комфорт 1020.1 1009.0
21 17.07 В 3 20 км 1/0
[Cs]
+20.8 +8.8 46 +23 +23 комфорт 1018.8 1007.8
00 18.07 В 1 20 км ясно +12.1 +9.1 82 +12 +12 1019.3 1008.1 +9.3 +22.5
03 18.07 В 2 20 км ясно +10.9 +8.7 86 +10 +10 1018.9 1007.8
06 18.07 В 2 20 км ясно +10.9 +9.3 90 +10 +10 1017.0 1006.1
09 18.07 В 2 20 км ясно +10.9 +9.9 94 +10 +10 1015.5 1004.5
12 18.07 В 2 5000 м дымка 1/0
[Ac As]
+12.9 +11.4 91 +12 +13 1017.0 1005.8 +10.4 +12.9
15 18.07 В 4 20 км 8/0
[Ac trans]
+20.8 +14.0 65 +24 +27 комфорт 1018.8 1007.8
18 18.07 В 2 20 км 9/3 750 м
[Sc Ac trans]
+23.5 +15.3 60 +26 +29 жарко 1016.6 1005.7

 

Местоположение метеостанции Пресиденсиа-Роке-Саэнс-Пенья (Аргентина): широта -26.73 долгота -60.48 высота над уровнем моря 93 м.

В архиве по умолчанию представлена погода в Пресиденсиа-Роке-Саэнс-Пеньи за последнюю неделю. Архивные данные за месяц целиком и за предыдущие месяцы, начиная с января 2011 года, Вы можете получить, выбрав интересующий диапазон дат из раскрывающегося списка и нажав кнопку "Ввод!".


*Определитесь, кто Вы:
робот инопланетянин человек

Внимание! Время в таблицах - всемирное. Для получения местного времени необходимо прибавить поправку, которая равна -3 ч.

Смотрите также архив погоды в соседних городах и на ближайших метеорологических станциях:

Погода в Ресистенсии (Аргентина) (163 км)
Погода в Корриентесе (Аргентина) (188 км)
Погода в Пиларе (Парагвай) (216 км)
Погода в Лас-Ломитасе (Аргентина) (226 км)
Погода в Формосе (Аргентина) (232 км)
Погода в Грал Бругуез (Парагвай) (274 км)
Погода в Реконкисте (Аргентина) (283 км)
Погода в Сан Хуан Батистута (Парагвай) (331 км)
Погода в Асунсьоне (Парагвай) (339 км)
Погода в Куйкуйо (Парагвай) (353 км)

Пояснения к столбцам:

Ветер - указаны скорость ветра в м/с - средняя за 10 мин, порывы в срок и между сроками (в фигурных скобках) и направление, откуда дует ветер: С - северный, СВ - северо-восточный, В - восточный, ЮВ - юго-восточный, Ю - южный, ЮЗ - юго-западный, З - западный, СЗ - северо-западный.
Видимость - горизонтальная дальность видимости в метрах или километрах. При видимости от 1 до 10 км при отсутствии осадков обычно наблюдается дымка, при ухудшении видимости до 1 км и менее - туман. В сухую погоду видимость может ухудшаться дымом, пылью или мглою.
Явления - указаны атмосферные явления, наблюдавшиеся в срок или в последний час перед сроком; фигурными скобками обозначены явления, наблюдавшиеся между сроками (за 1-3 часа до срока); квадратными скобками обозначены град или гололедные отложения с указанием их диаметра в мм.
Облачность - указаны через наклонную черту общая и нижняя облачность в баллах и высота нижней границы облаков в метрах; квадратными скобками обозначены формы облаков: Ci - перистые, Cs - перисто-слоистые, Cc - перисто-кучевые, Ac - высококучевые, As - высокослоистые, Sc - слоисто-кучевые, Ns - слоисто-дождевые, Cu - кучевые, Cb - кучево-дождевые. Подробнее классификацию облаков см. в Атласе облаков (PDF).
T - Температура воздуха - температура, измеренная на высоте 2 м над землей.
Td - Температура точки росы - температура, при понижении до которой содержащийся в воздухе водяной пар достигнет насыщения.
f - Относительная влажность воздуха - влажноcть воздуха, измеренная на высоте 2 м над землей.
Te - Эффективная температура - температура, которую ощущает одетый по сезону человек в тени. Характеристика душности погоды. При расчете учитывается влияние влажности воздуха и скорости ветра на теплоощущения человека.
Tes - Эффективная температура на солнце - температура, которую ощущает человек, с поправкой на солнечный нагрев. Характеристика знойности погоды. Зависит от высоты солнца над горизонтом, облачности и скорости ветра. Ночью, в пасмурную погоду, а также при ветре 12 м/с и более поправка равна нулю.
P - Атмосферное давление - приведенное к уровню моря атмосферное давление.
Po - Атмосферное давление - измеренное на уровне метеостанции атмосферное давление.
Tmin - Минимальная температура - минимум температуры воздуха на высоте 2 м над землей.
Tmax - Максимальная температура - максимум температуры воздуха на высоте 2 м над землей.
R - Количество осадков - Количество выпавших осадков за период времени, мм. При наведении курсора мыши на число - период времени, за который выпало указанное количество осадков.
R24 - Количество осадков - Количество выпавших осадков за 24 часа, мм.
S - Снежный покров - Высота снежного покрова, см. При наведении курсора мыши на число - состояние снежного покрова и степень покрытия местности в баллах.